Location: Ariel
(45.9570°N, 122.5700°W)
Time: 07:13:39
(UTC-07:00)

A-11 Canister half - Pass Details

Date: 02 September 2019
Orbit: 1514 x 1686 km, 47.2° (Epoch: 15 September)

Event Time Altitude Azimuth Distance (km) Brightness Sun altitude
Rises 22:58:40 0° 292° (WNW) 4,749 12.4 -28.9°
Reaches altitude 10° 23:02:04 10° 284° (WNW) 3,786 11.6 -29.3°
Maximum altitude 23:10:19 34° 225° (SW) 2,452 9.9 -30.1°
Enters shadow 23:12:04 32° 206° (SSW) 2,538 9.8 -30.3°
